Regional Weather Roundup
Issued by NWS Newport/Morehead, NC

Current Version | Previous Version | Text Only | Print | Product List | Glossary Off
Versions: 1 2 3 4 5 6 7 8 9 10 11 12 13 14 15 16 17 18 19 20 21 22 23 24 25 26 27 28 29 30 31 32 33 34 35 36 37 38 39 40 41 42 43 44 45 46 47 48 49 50
000 ASUS42 KMHX 050524 RWRMHX WEATHER ROUNDUP FOR EASTERN NORTH CAROLINA NATIONAL WEATHER SERVICE NEWPORT/MOREHEAD CITY NC 1200 AM EST MON DEC 05 2016 NOTE: "FAIR" INDICATES FEW OR NO CLOUDS BELOW 12,000 FEET WITH NO SIGNIFICANT WEATHER AND/OR OBSTRUCTIONS TO VISIBILITY NCZ015>017-031-032-045>047-102-103-050600- NORTH COAST CITY SKY/WX TMP DP RH WIND PRES REMARKS EDENTON DRIZZLE 47 44 88 CALM 30.10F ELIZABETH CITY LGT RAIN 46 43 89 E9 30.11F KITTY HAWK DRIZZLE 47 46 95 E5 30.10F MANTEO DRIZZLE 47 46 93 E5 30.12F $$ NCZ045>047-081-094-103-104-050600- CENTRAL COAST CITY SKY/WX TMP DP RH WIND PRES REMARKS FRISCO LGT RAIN 51 48 89 E6 30.09F FOG $$ NCZ095-097-098-100-101-050600- SOUTHERN COAST CITY SKY/WX TMP DP RH WIND PRES REMARKS BEAUFORT LGT RAIN 52 51 97 E7 30.05F FOG CEDAR ISLAND NOT AVBL JACKSONVILLE LGT RAIN 48 48 100 NE6 30.04F PINEY ISLAND LGT RAIN N/A N/A N/A E7 30.06F WILMINGTON RAIN 53 53 100 W5 30.03F FOG $$ NCZ011>013-027>030-043-044-078>080-089-090>093-098-050600- COASTAL PLAIN CITY SKY/WX TMP DP RH WIND PRES REMARKS AHOSKIE RAIN 42 41 97 CALM 30.10F CLINTON LGT RAIN 45 45 100 E3 30.06F ELIZABETHTOWN RAIN 46 46 100 CALM 30.04F GOLDSBORO MIX PCPN 45 45 100 CALM 30.04F GREENVILLE DRIZZLE 45 45 100 CALM 30.09F HAVELOCK LGT RAIN 49 47 93 E5 30.07F KENANSVILLE RAIN 45 45 100 CALM 30.06F FOG KINSTON LGT RAIN 46 45 97 CALM 30.07F NEW BERN LGT RAIN 47 45 93 E6 30.08F RICHLANDS LGT RAIN 46 45 96 NE5 30.06F ROCKY MOUNT LGT RAIN 43 43 100 CALM 30.08F FOG WASHINGTON DRIZZLE 45 44 95 E6 30.08F WHITEVILLE LGT RAIN 48 47 97 CALM 30.02F $$ AMZ130-135-150-152-154-156-158-170-250-252-270-ANZ085-086-088-633-658-670-050600- MARINE OBSERVATIONS STATION/POSITION TIME TEMP WIND PRES WAVE SWELL AIR SEA DIR/SP/G HT/PER HT/PER (UTC) (F) (DEG/KT/KT) (MB) (FT/S) (FT/S) CHESAPEAKE LIGHT NOT AVBL 64 E VA BEACH 0450 51 60 140/ 4/ 4 1020.2 3/ 7 3/ 7 DUCK 0500 49 55 110/ 8/ 11 1019.3 2 E DUCK NOT AVBL OREGON INLET 0500 70/ 7/ 9 N/A 13E OREGON INLT NOT AVBL HATTERAS CG 0500 52 58 60/ 6/ 8 1018.2 DIAMOND BUOY 0450 62 74 150/ 14/ 17 1018.8 3/ 8 2/ 8 CAPE LOOKOUT 0500 61 140/ 12/ 13 1017.2 BEAUFORT LAB 0500 52 55 10/ 4/ 4 1016.3 30 SE NEW RVR IN 0508 64 75 190/ 19/ 25 1017.0 30 SE NEW RVR IN NOT AVBL 27 SE WRIGHTSVLE 0508 68 69 170/ 19/ 25 1016.0 5 SE WRIGHTSVLE 0508 61 63 170/ 14/ 17 1016.3 225 S CAPE HAT 0450 67 73 140/ 12/ 14 1020.7 4/ 9 3/ 9 41 SE CHARLESTON 0450 73 75 170/ 21/ 27 1015.6 5/ 5 2/10 $$

USA.gov is the U.S. government's official web portal to all federal, state and local government web resources and services.